SL-14 R/B, 27061

Orbit data source: Space-Track

SL-14 R/B, 27061 is space debris in LEO originally from a launch on Fri, 28 Dec 2001 UTC launched from the Plesetsk Missile And Space Complex (PKMTR). Debris objects in space refer to the collection of defunct objects orbiting the Earth. Examples of debris include non-operational satellites, rocket bodies, and fragments generated from explosions, collisions, or faulty payload assembly.

Loading next visibility...
Identifier
27061, 2001-058G
Orbit
LEO
Last TLE update
15 hours ago
Origin
Manufacturer
Yuzhnoe
Mission
Spacecraft
Bus & Motor
S5M, Unknown motor
Mass
1,600 kg wet, 1,600 kg dry
Launch date (UTC)
2001-12-28 (24 years ago)
Launch vehicle
Unknown
Launch site
Plesetsk Missile And Space Complex (PKMTR)
Object type
Payload
Rocket body
Debris
Shape & HBR
Cyl, 2.7 m
Radar Cross Section
7.351 m², Large (>1 m²)

Expand to show TLE details & history

TLE from 15 hours ago
0 SL-14 R/B
1 27061U 01058G   25191.84614780 -.00000005  00000-0 -96440-4 0  9990
2 27061  82.5453 149.7804 0043826 153.6787 265.4047 12.53951802 77242
Epoch: 2025-07-10T20:18Z
TLE epoch observation values (Epoch: 2025-07-10T20:18:27.169Z)
Latitude
57.88859°
Longitude
-71.86504°
Altitude
1,460.599 km
Speed
7.136 km/s
True Right ascension
10h 47m 01s
True Declination
57° 44' 51"
Sunlit
Object was in daylight at epoch
Visualization orbit readout
Latitude
65.16907°
Longitude
-67.89994°
Altitude
1,456.737 km
Speed
7.141 km/s
Apparent Right ascension
11h 35m 54s
Apparent Declination
20° 20' 16"
Sunlit
Object is in daylight
Visualization observer readout
Local Sidereal Time
23:58:05
Azimuth
5.98° NNE
Elevation
-29.524°
Doppler factor
1
Orbital elements
Apogee altitude
1,479.63 km
Perigee altitude
1,411.056 km
Semi-major axis
7,823.48 km
Eccentricity
0.00438
Inclination
82.5453°
RAAN
149.7804°
Arg. of periapsis
153.6787°
True anomaly
Unknown
Mean anomaly
265.4047°
Eccentric anomaly
Unknown
Mean motion
3.13649 °/min
Orbital period
114.78 mins
BSTAR
-0.00009644
Loading maneuver chart data...
Loading SW <> Apogee altitude chart data...
Loading historical data...
Loading historical data...
Loading historical data...
Loading historical data...
Loading historical data...
Loading historical data...
Loading historical data...

SL-14 R/B Visibility forecast

Observer location: undefined°, undefined°

Span
Click to sort rows by Start time (UTC) header in descending order
Start Az.
Max El. time (UTC)
Max El. Az.
Max El.
End time (UTC)
End Az.
14 mins2025-07-11 20:59:01.283Z151.839° SSE2025-07-11 21:06:01.283Z89.073° E33.979°2025-07-11 21:13:01.283Z23.607° NE
14 mins2025-07-11 22:55:01.283Z222.171° SW2025-07-11 23:02:01.283Z288.89° WNW33.076°2025-07-11 23:09:01.283Z351.942° N
8 mins2025-07-12 07:07:01.283Z37.177° NE2025-07-12 07:10:01.283Z61.487° ENE16.472°2025-07-12 07:15:01.283Z99.749° ESE
15 mins2025-07-12 09:00:01.283Z352.822° N2025-07-12 09:07:01.283Z22.475° NNE44.961°2025-07-12 09:15:01.283Z173.986° S
7 mins2025-07-12 10:59:01.283Z304.08° NW2025-07-12 11:02:01.283Z279.718° WNW15.91°2025-07-12 11:06:01.283Z249.546° W
|